Time,TemperatureF,DewpointF,PressureIn,WindDirection,WindDirectionDegrees,WindSpeedMPH,WindSpeedGustMPH,Humidity,HourlyPrecipIn,Conditions,Clouds,dailyrainin,SoftwareType,DateUTC
2013-03-24 00:00:00,55.1,53.4,29.53,North,0,0.0,0.0,94,0.52,,,0.00,WUHU216HW,2013-03-24 05:00:00,
2013-03-24 00:05:00,55.1,53.4,29.53,North,0,0.0,0.0,94,0.51,,,0.01,WUHU216HW,2013-03-24 05:05:00,
2013-03-24 00:10:00,55.1,53.4,29.55,North,0,0.0,0.0,94,0.47,,,0.03,WUHU216HW,2013-03-24 05:10:00,
2013-03-24 00:15:00,55.1,53.4,29.58,North,0,0.0,0.0,94,0.42,,,0.07,WUHU216HW,2013-03-24 05:15:00,
2013-03-24 00:20:00,55.3,53.6,29.63,North,0,0.0,0.0,94,0.30,,,0.09,WUHU216HW,2013-03-24 05:20:00,
2013-03-24 00:25:00,55.4,53.7,29.62,North,0,0.0,0.0,94,0.21,,,0.09,WUHU216HW,2013-03-24 05:25:00,
2013-03-24 00:30:00,55.4,53.7,29.55,North,0,0.0,0.0,94,0.23,,,0.13,WUHU216HW,2013-03-24 05:30:00,
2013-03-24 00:35:00,55.4,53.7,29.57,North,0,0.0,0.0,94,0.28,,,0.20,WUHU216HW,2013-03-24 05:35:00,
2013-03-24 00:40:00,55.4,53.7,29.58,North,0,0.0,0.0,94,0.30,,,0.22,WUHU216HW,2013-03-24 05:40:00,
2013-03-24 00:45:00,55.4,53.7,29.59,North,0,0.0,0.0,94,0.28,,,0.22,WUHU216HW,2013-03-24 05:45:00,
2013-03-24 00:50:00,55.4,53.7,29.59,North,0,0.0,0.0,94,0.25,,,0.22,WUHU216HW,2013-03-24 05:50:00,
2013-03-24 00:55:00,55.4,53.7,29.59,North,0,0.0,0.0,94,0.25,,,0.22,WUHU216HW,2013-03-24 05:55:00,
2013-03-24 01:00:00,55.4,53.7,29.58,North,0,0.0,0.0,94,0.22,,,0.22,WUHU216HW,2013-03-24 06:00:00,
2013-03-24 01:05:00,55.4,53.7,29.56,North,0,0.0,0.0,94,0.19,,,0.22,WUHU216HW,2013-03-24 06:05:00,
2013-03-24 01:10:00,55.3,53.6,29.56,North,0,0.0,0.0,94,0.20,,,0.24,WUHU216HW,2013-03-24 06:10:00,
2013-03-24 01:15:00,55.3,53.6,29.56,North,0,0.0,0.0,94,0.15,,,0.24,WUHU216HW,2013-03-24 06:15:00,
2013-03-24 01:20:00,55.3,53.6,29.56,North,0,0.0,0.0,94,0.14,,,0.24,WUHU216HW,2013-03-24 06:20:00,
2013-03-24 01:25:00,55.4,53.7,29.59,North,0,0.0,0.0,94,0.12,,,0.24,WUHU216HW,2013-03-24 06:25:00,
2013-03-24 01:30:00,55.4,53.7,29.58,North,0,0.0,0.0,94,0.12,,,0.27,WUHU216HW,2013-03-24 06:30:00,
2013-03-24 01:35:00,55.4,53.7,29.58,North,0,0.0,0.0,94,0.11,,,0.32,WUHU216HW,2013-03-24 06:35:00,
2013-03-24 01:40:00,55.4,53.7,29.57,North,0,0.0,0.0,94,0.13,,,0.36,WUHU216HW,2013-03-24 06:40:00,
2013-03-24 01:45:00,55.4,53.7,29.58,North,0,0.0,0.0,94,0.22,,,0.43,WUHU216HW,2013-03-24 06:45:00,
2013-03-24 01:50:00,55.4,53.7,29.57,North,0,0.0,0.0,94,0.25,,,0.48,WUHU216HW,2013-03-24 06:50:00,
2013-03-24 01:55:00,55.4,53.7,29.56,North,0,0.0,0.0,94,0.26,,,0.49,WUHU216HW,2013-03-24 06:55:00,
2013-03-24 02:00:00,55.4,53.7,29.54,North,0,0.0,0.0,94,0.26,,,0.49,WUHU216HW,2013-03-24 07:00:00,
2013-03-24 02:05:00,55.4,53.7,29.55,North,0,0.0,0.0,94,0.26,,,0.50,WUHU216HW,2013-03-24 07:05:00,
2013-03-24 02:10:00,55.4,53.7,29.54,North,0,0.0,0.0,94,0.26,,,0.50,WUHU216HW,2013-03-24 07:10:00,
2013-03-24 02:15:00,55.4,53.7,29.54,North,0,0.0,0.0,94,0.28,,,0.51,WUHU216HW,2013-03-24 07:15:00,
2013-03-24 02:20:00,55.4,53.7,29.54,North,0,0.0,0.0,94,0.26,,,0.51,WUHU216HW,2013-03-24 07:20:00,
2013-03-24 02:25:00,55.4,53.7,29.53,North,0,0.0,0.0,94,0.26,,,0.51,WUHU216HW,2013-03-24 07:25:00,
2013-03-24 02:30:00,55.4,53.7,29.51,North,0,0.0,0.0,94,0.20,,,0.51,WUHU216HW,2013-03-24 07:30:00,
2013-03-24 02:35:00,55.4,53.7,29.51,North,0,0.0,0.0,94,0.16,,,0.51,WUHU216HW,2013-03-24 07:35:00,
2013-03-24 02:40:00,55.4,53.7,29.51,North,0,0.0,0.0,94,0.09,,,0.52,WUHU216HW,2013-03-24 07:40:00,
2013-03-24 02:45:00,55.4,54.0,29.51,North,0,0.0,0.0,95,0.09,,,0.57,WUHU216HW,2013-03-24 07:45:00,
2013-03-24 02:50:00,55.4,53.7,29.51,North,0,0.0,0.0,94,0.10,,,0.58,WUHU216HW,2013-03-24 07:50:00,
2013-03-24 02:55:00,55.4,53.7,29.51,North,0,0.0,0.0,94,0.09,,,0.58,WUHU216HW,2013-03-24 07:55:00,
2013-03-24 03:00:00,55.4,53.7,29.51,North,0,0.0,0.0,94,0.09,,,0.58,WUHU216HW,2013-03-24 08:00:00,
2013-03-24 03:05:00,55.4,53.7,29.51,North,0,0.0,0.0,94,0.08,,,0.58,WUHU216HW,2013-03-24 08:05:00,
2013-03-24 03:10:00,55.4,53.7,29.50,North,0,0.0,0.0,94,0.08,,,0.58,WUHU216HW,2013-03-24 08:10:00,
2013-03-24 03:15:00,55.4,54.0,29.49,North,0,0.0,0.0,95,0.07,,,0.58,WUHU216HW,2013-03-24 08:15:00,
2013-03-24 03:20:00,55.4,54.0,29.49,North,0,0.0,0.0,95,0.07,,,0.58,WUHU216HW,2013-03-24 08:20:00,
2013-03-24 03:25:00,55.4,54.0,29.49,North,0,0.0,0.0,95,0.07,,,0.58,WUHU216HW,2013-03-24 08:25:00,
2013-03-24 03:30:00,55.4,54.0,29.49,North,0,0.0,0.0,95,0.07,,,0.58,WUHU216HW,2013-03-24 08:30:00,
2013-03-24 03:35:00,55.4,54.0,29.49,North,0,0.0,0.0,95,0.07,,,0.58,WUHU216HW,2013-03-24 08:35:00,
2013-03-24 03:40:00,55.4,54.0,29.47,North,0,0.0,0.0,95,0.01,,,0.58,WUHU216HW,2013-03-24 08:40:00,
2013-03-24 03:45:00,55.4,54.0,29.49,North,0,0.0,0.0,95,0.00,,,0.58,WUHU216HW,2013-03-24 08:45:00,
2013-03-24 03:50:00,55.4,54.0,29.49,North,0,0.0,0.0,95,0.00,,,0.58,WUHU216HW,2013-03-24 08:50:00,
2013-03-24 03:55:00,55.4,54.0,29.49,North,0,0.0,0.0,95,0.03,,,0.61,WUHU216HW,2013-03-24 08:55:00,
2013-03-24 04:00:00,55.4,54.0,29.47,North,0,0.0,0.0,95,0.03,,,0.61,WUHU216HW,2013-03-24 09:00:00,
2013-03-24 04:05:00,55.4,54.0,29.47,North,0,0.0,0.0,95,0.03,,,0.61,WUHU216HW,2013-03-24 09:05:00,
2013-03-24 04:10:00,55.4,54.0,29.46,North,0,0.0,0.0,95,0.03,,,0.61,WUHU216HW,2013-03-24 09:10:00,
2013-03-24 04:15:00,55.4,54.0,29.46,North,0,0.0,0.0,95,0.03,,,0.61,WUHU216HW,2013-03-24 09:15:00,
2013-03-24 04:20:00,55.4,54.0,29.46,North,0,0.0,0.0,95,0.03,,,0.61,WUHU216HW,2013-03-24 09:20:00,
2013-03-24 04:25:00,55.4,54.0,29.46,North,0,0.0,0.0,95,0.03,,,0.61,WUHU216HW,2013-03-24 09:25:00,
2013-03-24 04:30:00,55.4,54.0,29.45,North,0,0.0,0.0,95,0.03,,,0.61,WUHU216HW,2013-03-24 09:30:00,
2013-03-24 04:35:00,55.4,54.0,29.48,North,0,0.0,0.0,95,0.03,,,0.61,WUHU216HW,2013-03-24 09:35:00,
2013-03-24 04:40:00,55.6,54.2,29.49,North,0,0.0,0.0,95,0.03,,,0.61,WUHU216HW,2013-03-24 09:40:00,
2013-03-24 04:45:00,55.6,54.2,29.51,North,0,0.0,0.0,95,0.04,,,0.62,WUHU216HW,2013-03-24 09:45:00,
2013-03-24 04:50:00,55.6,54.2,29.51,North,0,0.0,0.0,95,0.03,,,0.62,WUHU216HW,2013-03-24 09:50:00,
2013-03-24 04:55:00,55.4,54.0,29.51,North,0,0.0,0.0,95,0.02,,,0.63,WUHU216HW,2013-03-24 09:55:00,
2013-03-24 05:00:00,55.4,54.0,29.52,North,0,0.0,0.0,95,0.02,,,0.63,WUHU216HW,2013-03-24 10:00:00,
2013-03-24 05:05:00,55.4,54.0,29.51,North,0,0.0,0.0,95,0.02,,,0.63,WUHU216HW,2013-03-24 10:05:00,
2013-03-24 05:10:00,55.4,54.0,29.52,North,0,0.0,0.0,95,0.02,,,0.63,WUHU216HW,2013-03-24 10:10:00,
2013-03-24 05:15:00,55.4,54.0,29.51,North,0,0.0,0.0,95,0.02,,,0.63,WUHU216HW,2013-03-24 10:15:00,
2013-03-24 05:20:00,55.3,53.8,29.50,North,0,0.0,0.0,95,0.02,,,0.63,WUHU216HW,2013-03-24 10:20:00,
2013-03-24 05:25:00,55.1,53.6,29.49,North,0,0.0,0.0,95,0.02,,,0.63,WUHU216HW,2013-03-24 10:25:00,
2013-03-24 05:30:00,55.1,53.6,29.49,North,0,0.0,0.0,95,0.02,,,0.63,WUHU216HW,2013-03-24 10:30:00,
2013-03-24 05:35:00,54.7,53.3,29.49,North,0,0.0,0.0,95,0.02,,,0.63,WUHU216HW,2013-03-24 10:35:00,
2013-03-24 05:40:00,54.5,53.1,29.49,North,0,0.0,0.0,95,0.01,,,0.63,WUHU216HW,2013-03-24 10:40:00,
2013-03-24 05:45:00,54.4,52.9,29.49,North,0,0.0,0.0,95,0.01,,,0.63,WUHU216HW,2013-03-24 10:45:00,
2013-03-24 05:50:00,54.4,52.9,29.49,North,0,0.0,0.0,95,0.00,,,0.63,WUHU216HW,2013-03-24 10:50:00,
2013-03-24 05:55:00,54.2,52.7,29.48,North,0,0.0,0.0,95,0.00,,,0.63,WUHU216HW,2013-03-24 10:55:00,
2013-03-24 06:00:00,54.2,52.7,29.48,North,0,0.0,0.0,95,0.00,,,0.63,WUHU216HW,2013-03-24 11:00:00,
2013-03-24 06:05:00,54.0,52.6,29.48,North,0,0.0,0.0,95,0.00,,,0.63,WUHU216HW,2013-03-24 11:05:00,
2013-03-24 06:10:00,53.8,52.4,29.49,North,0,0.0,0.0,95,0.00,,,0.63,WUHU216HW,2013-03-24 11:10:00,
2013-03-24 06:15:00,53.6,52.2,29.48,North,0,0.0,0.0,95,0.00,,,0.63,WUHU216HW,2013-03-24 11:15:00,
2013-03-24 06:20:00,53.6,52.2,29.48,North,0,0.0,0.0,95,0.00,,,0.63,WUHU216HW,2013-03-24 11:20:00,
2013-03-24 06:25:00,53.6,52.2,29.49,North,0,0.0,0.0,95,0.00,,,0.63,WUHU216HW,2013-03-24 11:25:00,
2013-03-24 06:30:00,53.4,52.0,29.49,North,0,0.0,0.0,95,0.00,,,0.63,WUHU216HW,2013-03-24 11:30:00,
2013-03-24 06:35:00,53.3,51.8,29.48,North,0,0.0,0.0,95,0.00,,,0.63,WUHU216HW,2013-03-24 11:35:00,
2013-03-24 06:40:00,53.3,51.9,29.49,North,0,0.0,0.0,95,0.00,,,0.63,WUHU216HW,2013-03-24 11:40:00,
2013-03-24 06:45:00,53.1,51.7,29.49,North,0,0.0,0.0,95,0.00,,,0.63,WUHU216HW,2013-03-24 11:45:00,
2013-03-24 06:50:00,53.2,51.8,29.48,North,0,0.0,0.0,95,0.00,,,0.63,WUHU216HW,2013-03-24 11:50:00,
2013-03-24 06:55:00,53.0,51.3,29.49,North,0,0.0,0.0,94,0.00,,,0.63,WUHU216HW,2013-03-24 11:55:00,
2013-03-24 07:00:00,53.0,51.2,29.49,North,0,0.0,0.0,94,0.00,,,0.63,WUHU216HW,2013-03-24 12:00:00,
2013-03-24 07:05:00,53.1,51.4,29.49,North,0,0.0,0.0,94,0.00,,,0.63,WUHU216HW,2013-03-24 12:05:00,
2013-03-24 07:10:00,53.1,51.4,29.48,North,0,0.0,0.0,94,0.00,,,0.63,WUHU216HW,2013-03-24 12:10:00,
2013-03-24 07:15:00,53.2,51.5,29.48,North,0,0.0,0.0,94,0.00,,,0.63,WUHU216HW,2013-03-24 12:15:00,
2013-03-24 07:20:00,53.1,51.4,29.48,North,0,0.0,0.0,94,0.00,,,0.63,WUHU216HW,2013-03-24 12:20:00,
2013-03-24 07:25:00,53.5,52.0,29.49,North,0,0.0,0.0,95,0.00,,,0.63,WUHU216HW,2013-03-24 12:25:00,
2013-03-24 07:30:00,53.7,52.3,29.49,North,0,0.0,0.0,95,0.00,,,0.63,WUHU216HW,2013-03-24 12:30:00,
2013-03-24 07:35:00,53.9,52.5,29.50,North,0,0.0,0.0,95,0.00,,,0.63,WUHU216HW,2013-03-24 12:35:00,
2013-03-24 07:40:00,54.2,52.7,29.50,North,0,0.0,0.0,95,0.00,,,0.63,WUHU216HW,2013-03-24 12:40:00,
2013-03-24 07:45:00,54.3,52.8,29.50,North,0,0.0,0.0,95,0.00,,,0.63,WUHU216HW,2013-03-24 12:45:00,
2013-03-24 07:50:00,54.3,52.9,29.51,North,0,0.0,0.0,95,0.00,,,0.63,WUHU216HW,2013-03-24 12:50:00,
2013-03-24 07:56:00,54.3,52.9,29.51,North,0,0.0,0.0,95,0.00,,,0.63,WUHU216HW,2013-03-24 12:56:00,
2013-03-24 08:01:00,54.4,52.9,29.51,North,0,0.0,0.0,95,0.00,,,0.63,WUHU216HW,2013-03-24 13:01:00,
2013-03-24 08:06:00,54.4,53.0,29.51,North,0,0.0,0.0,95,0.00,,,0.63,WUHU216HW,2013-03-24 13:06:00,
2013-03-24 08:11:00,54.4,53.0,29.51,North,0,0.0,0.0,95,0.00,,,0.63,WUHU216HW,2013-03-24 13:11:00,
2013-03-24 08:16:00,54.6,53.2,29.52,North,0,0.0,0.0,95,0.00,,,0.63,WUHU216HW,2013-03-24 13:16:00,
2013-03-24 08:21:00,54.9,53.4,29.53,North,0,0.0,0.0,95,0.00,,,0.63,WUHU216HW,2013-03-24 13:21:00,
2013-03-24 08:26:00,55.1,53.4,29.53,North,0,0.0,0.0,94,0.00,,,0.63,WUHU216HW,2013-03-24 13:26:00,
2013-03-24 08:31:00,55.1,53.4,29.53,North,0,0.0,0.0,94,0.00,,,0.63,WUHU216HW,2013-03-24 13:31:00,
2013-03-24 08:36:00,55.6,53.9,29.54,North,0,0.0,0.0,94,0.00,,,0.63,WUHU216HW,2013-03-24 13:36:00,
2013-03-24 08:41:00,56.0,54.3,29.54,North,0,0.0,0.0,94,0.00,,,0.63,WUHU216HW,2013-03-24 13:41:00,
2013-03-24 08:46:00,56.4,54.3,29.54,North,0,0.0,0.0,93,0.00,,,0.63,WUHU216HW,2013-03-24 13:46:00,
2013-03-24 08:51:00,56.6,54.5,29.54,North,0,0.0,0.0,93,0.00,,,0.63,WUHU216HW,2013-03-24 13:51:00,
2013-03-24 08:56:00,56.4,54.0,29.54,North,0,0.0,0.0,92,0.00,,,0.63,WUHU216HW,2013-03-24 13:56:00,
2013-03-24 09:02:00,56.8,54.1,29.54,North,0,0.0,0.0,91,0.00,,,0.63,WUHU216HW,2013-03-24 14:02:00,
2013-03-24 09:07:00,57.5,54.5,29.55,North,0,0.0,0.0,90,0.00,,,0.63,WUHU216HW,2013-03-24 14:07:00,
2013-03-24 09:12:00,57.7,54.8,29.55,North,0,0.0,0.0,90,0.00,,,0.63,WUHU216HW,2013-03-24 14:12:00,
2013-03-24 09:17:00,57.9,55.0,29.56,North,0,0.0,0.0,90,0.00,,,0.63,WUHU216HW,2013-03-24 14:17:00,
2013-03-24 09:22:00,58.4,55.1,29.56,North,0,0.0,0.0,89,0.00,,,0.63,WUHU216HW,2013-03-24 14:22:00,
2013-03-24 09:27:00,58.6,54.7,29.56,North,0,0.0,0.0,87,0.00,,,0.63,WUHU216HW,2013-03-24 14:27:00,
2013-03-24 09:32:00,58.6,55.0,29.56,North,0,0.0,0.0,88,0.00,,,0.63,WUHU216HW,2013-03-24 14:32:00,
2013-03-24 09:37:00,58.8,54.9,29.56,North,0,0.0,0.0,87,0.00,,,0.63,WUHU216HW,2013-03-24 14:37:00,
2013-03-24 09:42:00,59.5,56.2,29.56,North,0,0.0,0.0,89,0.00,,,0.63,WUHU216HW,2013-03-24 14:42:00,
2013-03-24 09:47:00,60.0,55.8,29.55,North,0,0.0,0.0,86,0.00,,,0.63,WUHU216HW,2013-03-24 14:47:00,
2013-03-24 09:52:00,59.7,55.8,29.54,North,0,0.0,0.0,87,0.00,,,0.63,WUHU216HW,2013-03-24 14:52:00,
2013-03-24 09:57:00,59.3,54.8,29.53,North,0,0.0,0.0,85,0.00,,,0.63,WUHU216HW,2013-03-24 14:57:00,
2013-03-24 10:02:00,59.4,55.6,29.53,North,0,0.0,0.0,87,0.00,,,0.63,WUHU216HW,2013-03-24 15:02:00,
2013-03-24 10:07:00,59.8,55.9,29.52,North,0,0.0,0.0,87,0.00,,,0.63,WUHU216HW,2013-03-24 15:07:00,
2013-03-24 10:12:00,59.6,55.1,29.51,North,0,0.0,0.0,85,0.00,,,0.63,WUHU216HW,2013-03-24 15:12:00,
2013-03-24 10:17:00,59.9,55.4,29.51,North,0,0.0,0.0,85,0.00,,,0.63,WUHU216HW,2013-03-24 15:17:00,
2013-03-24 10:22:00,60.1,55.9,29.53,North,0,0.0,0.0,86,0.00,,,0.63,WUHU216HW,2013-03-24 15:22:00,
2013-03-24 10:27:00,60.8,56.2,29.53,North,0,0.0,0.0,85,0.00,,,0.63,WUHU216HW,2013-03-24 15:27:00,
2013-03-24 10:32:00,60.9,56.4,29.54,North,0,0.0,0.0,85,0.00,,,0.63,WUHU216HW,2013-03-24 15:32:00,
2013-03-24 10:37:00,61.1,56.6,29.54,North,0,0.0,0.0,85,0.00,,,0.63,WUHU216HW,2013-03-24 15:37:00,
2013-03-24 10:42:00,61.8,56.9,29.54,North,0,0.0,0.0,84,0.00,,,0.63,WUHU216HW,2013-03-24 15:42:00,
2013-03-24 10:47:00,62.0,56.8,29.55,North,0,0.0,0.0,83,0.00,,,0.63,WUHU216HW,2013-03-24 15:47:00,
2013-03-24 10:52:00,62.1,56.9,29.56,North,0,0.0,0.0,83,0.00,,,0.63,WUHU216HW,2013-03-24 15:52:00,
2013-03-24 10:57:00,62.3,57.1,29.57,North,0,0.0,0.0,83,0.00,,,0.63,WUHU216HW,2013-03-24 15:57:00,
2013-03-24 11:02:00,62.4,57.2,29.58,North,0,0.0,0.0,83,0.00,,,0.63,WUHU216HW,2013-03-24 16:02:00,
2013-03-24 11:07:00,62.2,56.1,29.58,North,0,0.0,0.0,80,0.00,,,0.63,WUHU216HW,2013-03-24 16:07:00,
2013-03-24 11:12:00,62.2,56.4,29.58,North,0,0.0,0.0,81,0.00,,,0.63,WUHU216HW,2013-03-24 16:12:00,
2013-03-24 11:17:00,62.2,56.0,29.58,North,0,0.0,0.0,80,0.00,,,0.63,WUHU216HW,2013-03-24 16:17:00,
2013-03-24 11:22:00,62.1,56.0,29.58,North,0,0.0,0.0,80,0.00,,,0.63,WUHU216HW,2013-03-24 16:22:00,
2013-03-24 11:27:00,62.2,56.7,29.58,North,0,0.0,0.0,82,0.00,,,0.63,WUHU216HW,2013-03-24 16:27:00,
2013-03-24 11:32:00,63.0,57.4,29.58,North,0,0.0,0.0,82,0.00,,,0.63,WUHU216HW,2013-03-24 16:32:00,
2013-03-24 11:37:00,63.2,56.7,29.58,North,0,0.0,0.0,79,0.00,,,0.63,WUHU216HW,2013-03-24 16:37:00,
2013-03-24 11:42:00,63.8,57.2,29.57,North,0,0.0,0.0,79,0.00,,,0.63,WUHU216HW,2013-03-24 16:42:00,
2013-03-24 11:47:00,63.9,56.6,29.56,North,0,0.0,0.0,77,0.00,,,0.63,WUHU216HW,2013-03-24 16:47:00,
2013-03-24 11:52:00,64.4,58.2,29.56,North,0,0.0,0.0,80,0.00,,,0.63,WUHU216HW,2013-03-24 16:52:00,
2013-03-24 11:57:00,64.7,56.3,29.57,North,0,0.0,0.0,74,0.01,,,0.64,WUHU216HW,2013-03-24 16:57:00,
2013-03-24 12:02:00,64.8,57.6,29.56,North,0,0.0,0.0,77,0.01,,,0.64,WUHU216HW,2013-03-24 17:02:00,
2013-03-24 12:07:00,65.5,57.8,29.57,North,0,0.0,0.0,76,0.01,,,0.64,WUHU216HW,2013-03-24 17:07:00,
2013-03-24 12:12:00,66.2,57.8,29.56,North,0,0.0,0.0,74,0.01,,,0.64,WUHU216HW,2013-03-24 17:12:00,
2013-03-24 12:17:00,66.5,58.1,29.57,North,0,0.0,0.0,74,0.01,,,0.64,WUHU216HW,2013-03-24 17:17:00,
2013-03-24 12:22:00,66.9,58.4,29.56,North,0,0.0,0.0,74,0.01,,,0.64,WUHU216HW,2013-03-24 17:22:00,
2013-03-24 12:27:00,67.3,57.4,29.56,North,0,0.0,0.0,70,0.01,,,0.64,WUHU216HW,2013-03-24 17:27:00,
2013-03-24 12:32:00,67.3,57.2,29.56,North,0,0.0,0.0,70,0.01,,,0.64,WUHU216HW,2013-03-24 17:32:00,
2013-03-24 12:37:00,67.7,57.6,29.55,North,0,0.0,0.0,70,0.01,,,0.64,WUHU216HW,2013-03-24 17:37:00,
2013-03-24 12:42:00,67.7,58.0,29.55,North,0,0.0,0.0,71,0.01,,,0.64,WUHU216HW,2013-03-24 17:42:00,
2013-03-24 12:47:00,67.9,56.9,29.55,North,0,0.0,0.0,68,0.01,,,0.64,WUHU216HW,2013-03-24 17:47:00,
2013-03-24 12:52:00,67.9,57.8,29.55,North,0,0.0,0.0,70,0.00,,,0.64,WUHU216HW,2013-03-24 17:52:00,
2013-03-24 12:57:00,68.6,58.9,29.54,North,0,0.0,0.0,71,0.00,,,0.64,WUHU216HW,2013-03-24 17:57:00,
2013-03-24 13:02:00,69.5,59.2,29.54,North,0,0.0,0.0,70,0.00,,,0.64,WUHU216HW,2013-03-24 18:02:00,
2013-03-24 13:08:00,69.8,59.1,29.54,North,0,0.0,0.0,69,0.00,,,0.64,WUHU216HW,2013-03-24 18:08:00,
2013-03-24 13:13:00,70.0,57.7,29.54,North,0,0.0,0.0,65,0.00,,,0.64,WUHU216HW,2013-03-24 18:13:00,
2013-03-24 13:18:00,70.0,58.2,29.54,North,0,0.0,0.0,66,0.00,,,0.64,WUHU216HW,2013-03-24 18:18:00,
2013-03-24 13:23:00,70.0,58.5,29.54,North,0,0.0,0.0,67,0.00,,,0.64,WUHU216HW,2013-03-24 18:23:00,
2013-03-24 13:28:00,70.2,59.1,29.54,North,0,0.0,0.0,68,0.00,,,0.64,WUHU216HW,2013-03-24 18:28:00,
2013-03-24 13:33:00,70.9,59.4,29.54,North,0,0.0,0.0,67,0.00,,,0.64,WUHU216HW,2013-03-24 18:33:00,
2013-03-24 13:38:00,71.3,59.3,29.54,North,0,0.0,0.0,66,0.00,,,0.64,WUHU216HW,2013-03-24 18:38:00,
2013-03-24 13:43:00,70.9,58.5,29.54,North,0,0.0,0.0,65,0.00,,,0.64,WUHU216HW,2013-03-24 18:43:00,
2013-03-24 13:48:00,70.7,58.3,29.54,North,0,0.0,0.0,65,0.00,,,0.64,WUHU216HW,2013-03-24 18:48:00,
2013-03-24 13:53:00,70.9,58.5,29.53,North,0,0.0,0.0,65,0.00,,,0.64,WUHU216HW,2013-03-24 18:53:00,
2013-03-24 13:58:00,71.1,58.7,29.54,North,0,0.0,0.0,65,0.00,,,0.64,WUHU216HW,2013-03-24 18:58:00,
2013-03-24 14:03:00,71.3,59.3,29.53,North,0,0.0,0.0,66,0.00,,,0.64,WUHU216HW,2013-03-24 19:03:00,
2013-03-24 14:08:00,71.3,58.4,29.53,North,0,0.0,0.0,64,0.00,,,0.64,WUHU216HW,2013-03-24 19:08:00,
2013-03-24 14:13:00,71.3,58.9,29.53,North,0,0.0,0.0,65,0.00,,,0.64,WUHU216HW,2013-03-24 19:13:00,
2013-03-24 14:18:00,71.5,59.5,29.52,North,0,0.0,0.0,66,0.00,,,0.64,WUHU216HW,2013-03-24 19:18:00,
2013-03-24 14:23:00,71.5,59.0,29.52,North,0,0.0,0.0,65,0.00,,,0.64,WUHU216HW,2013-03-24 19:23:00,
2013-03-24 14:28:00,71.3,58.1,29.52,North,0,0.0,0.0,63,0.00,,,0.64,WUHU216HW,2013-03-24 19:28:00,
2013-03-24 14:33:00,71.1,58.7,29.51,North,0,0.0,0.0,65,0.00,,,0.64,WUHU216HW,2013-03-24 19:33:00,
2013-03-24 14:38:00,71.1,58.7,29.51,North,0,0.0,0.0,65,0.00,,,0.64,WUHU216HW,2013-03-24 19:38:00,
2013-03-24 14:43:00,71.1,58.7,29.51,North,0,0.0,0.0,65,0.00,,,0.64,WUHU216HW,2013-03-24 19:43:00,
2013-03-24 14:48:00,71.1,58.3,29.51,North,0,0.0,0.0,64,0.00,,,0.64,WUHU216HW,2013-03-24 19:48:00,
2013-03-24 14:53:00,71.1,58.7,29.51,North,0,0.0,0.0,65,0.00,,,0.64,WUHU216HW,2013-03-24 19:53:00,
2013-03-24 14:58:00,71.1,57.9,29.51,North,0,0.0,0.0,63,0.00,,,0.64,WUHU216HW,2013-03-24 19:58:00,
2013-03-24 15:03:00,70.7,57.5,29.51,North,0,0.0,0.0,63,0.00,,,0.64,WUHU216HW,2013-03-24 20:03:00,
2013-03-24 15:08:00,70.4,57.6,29.51,North,0,0.0,0.0,64,0.00,,,0.64,WUHU216HW,2013-03-24 20:08:00,
2013-03-24 15:13:00,70.2,57.1,29.51,North,0,0.0,0.0,63,0.00,,,0.64,WUHU216HW,2013-03-24 20:13:00,
2013-03-24 15:18:00,69.5,57.2,29.51,North,0,0.0,0.0,65,0.00,,,0.64,WUHU216HW,2013-03-24 20:18:00,
2013-03-24 15:22:00,69.1,57.2,29.51,North,0,0.0,0.0,66,0.00,,,0.64,WUHU216HW,2013-03-24 20:22:00,
2013-03-24 15:27:00,68.8,57.3,29.52,North,0,0.0,0.0,67,0.00,,,0.64,WUHU216HW,2013-03-24 20:27:00,
2013-03-24 15:32:00,68.4,57.4,29.52,North,0,0.0,0.0,68,0.00,,,0.64,WUHU216HW,2013-03-24 20:32:00,
2013-03-24 15:37:00,67.9,56.9,29.52,North,0,0.0,0.0,68,0.00,,,0.64,WUHU216HW,2013-03-24 20:37:00,
2013-03-24 15:42:00,67.1,57.1,29.52,North,0,0.0,0.0,70,0.00,,,0.64,WUHU216HW,2013-03-24 20:42:00,
2013-03-24 15:47:00,66.4,56.3,29.53,North,0,0.0,0.0,70,0.00,,,0.64,WUHU216HW,2013-03-24 20:47:00,
2013-03-24 15:52:00,65.9,56.3,29.53,North,0,0.0,0.0,71,0.00,,,0.64,WUHU216HW,2013-03-24 20:52:00,
2013-03-24 15:57:00,65.9,56.6,29.53,North,0,0.0,0.0,72,0.00,,,0.64,WUHU216HW,2013-03-24 20:57:00,
2013-03-24 16:03:00,66.6,56.5,29.52,North,0,0.0,0.0,70,0.00,,,0.64,WUHU216HW,2013-03-24 21:03:00,
2013-03-24 16:08:00,67.3,57.6,29.52,North,0,0.0,0.0,71,0.00,,,0.64,WUHU216HW,2013-03-24 21:08:00,
2013-03-24 16:13:00,67.9,56.9,29.51,North,0,0.0,0.0,68,0.00,,,0.64,WUHU216HW,2013-03-24 21:13:00,
2013-03-24 16:18:00,67.9,56.5,29.51,North,0,0.0,0.0,67,0.00,,,0.64,WUHU216HW,2013-03-24 21:18:00,
2013-03-24 16:23:00,67.7,56.7,29.51,North,0,0.0,0.0,68,0.00,,,0.64,WUHU216HW,2013-03-24 21:23:00,
2013-03-24 16:28:00,67.7,57.2,29.51,North,0,0.0,0.0,69,0.00,,,0.64,WUHU216HW,2013-03-24 21:28:00,
2013-03-24 16:33:00,67.7,57.2,29.51,North,0,0.0,0.0,69,0.00,,,0.64,WUHU216HW,2013-03-24 21:33:00,
2013-03-24 16:38:00,67.7,56.7,29.51,North,0,0.0,0.0,68,0.00,,,0.64,WUHU216HW,2013-03-24 21:38:00,
2013-03-24 16:43:00,67.5,57.0,29.51,North,0,0.0,0.0,69,0.00,,,0.64,WUHU216HW,2013-03-24 21:43:00,
2013-03-24 16:48:00,67.5,57.4,29.51,North,0,0.0,0.0,70,0.00,,,0.64,WUHU216HW,2013-03-24 21:48:00,
2013-03-24 16:53:00,67.3,56.8,29.51,North,0,0.0,0.0,69,0.00,,,0.64,WUHU216HW,2013-03-24 21:53:00,
2013-03-24 16:58:00,67.3,57.2,29.51,North,0,0.0,0.0,70,0.00,,,0.64,WUHU216HW,2013-03-24 21:58:00,
2013-03-24 17:03:00,67.1,57.1,29.51,North,0,0.0,0.0,70,0.00,,,0.64,WUHU216HW,2013-03-24 22:03:00,
2013-03-24 17:08:00,66.4,56.3,29.52,North,0,0.0,0.0,70,0.00,,,0.64,WUHU216HW,2013-03-24 22:08:00,
2013-03-24 17:13:00,65.7,55.7,29.53,North,0,0.0,0.0,70,0.00,,,0.64,WUHU216HW,2013-03-24 22:13:00,
2013-03-24 17:18:00,65.2,55.9,29.53,North,0,0.0,0.0,72,0.00,,,0.64,WUHU216HW,2013-03-24 22:18:00,
2013-03-24 17:23:00,64.6,55.1,29.54,North,0,0.0,0.0,71,0.00,,,0.64,WUHU216HW,2013-03-24 22:23:00,
2013-03-24 17:28:00,63.7,54.5,29.55,North,0,0.0,0.0,72,0.00,,,0.64,WUHU216HW,2013-03-24 22:28:00,
2013-03-24 17:33:00,63.0,53.8,29.56,North,0,0.0,0.0,72,0.00,,,0.64,WUHU216HW,2013-03-24 22:33:00,
2013-03-24 17:38:00,62.6,53.8,29.56,North,0,0.0,0.0,73,0.00,,,0.64,WUHU216HW,2013-03-24 22:38:00,
2013-03-24 17:43:00,62.3,53.5,29.56,North,0,0.0,0.0,73,0.00,,,0.64,WUHU216HW,2013-03-24 22:43:00,
2013-03-24 17:48:00,62.3,53.1,29.56,North,0,0.0,0.0,72,0.00,,,0.64,WUHU216HW,2013-03-24 22:48:00,
2013-03-24 17:53:00,61.7,51.5,29.56,North,0,0.0,0.0,69,0.00,,,0.64,WUHU216HW,2013-03-24 22:53:00,
2013-03-24 17:58:00,61.4,51.6,29.57,North,0,0.0,0.0,70,0.00,,,0.64,WUHU216HW,2013-03-24 22:58:00,
2013-03-24 18:03:00,60.8,50.7,29.57,North,0,0.0,0.0,69,0.00,,,0.64,WUHU216HW,2013-03-24 23:03:00,
2013-03-24 18:08:00,60.5,50.3,29.58,North,0,0.0,0.0,69,0.00,,,0.64,WUHU216HW,2013-03-24 23:08:00,
2013-03-24 18:13:00,59.8,49.2,29.58,North,0,0.0,0.0,68,0.00,,,0.64,WUHU216HW,2013-03-24 23:13:00,
2013-03-24 18:18:00,59.4,49.2,29.59,North,0,0.0,0.0,69,0.00,,,0.64,WUHU216HW,2013-03-24 23:18:00,
2013-03-24 18:23:00,58.9,47.5,29.59,North,0,0.0,0.0,66,0.00,,,0.64,WUHU216HW,2013-03-24 23:23:00,
2013-03-24 18:28:00,58.5,47.2,29.59,North,0,0.0,0.0,66,0.00,,,0.64,WUHU216HW,2013-03-24 23:28:00,
2013-03-24 18:33:00,58.0,46.3,29.59,North,0,0.0,0.0,65,0.00,,,0.64,WUHU216HW,2013-03-24 23:33:00,
2013-03-24 18:38:00,57.6,45.9,29.60,North,0,0.0,0.0,65,0.00,,,0.64,WUHU216HW,2013-03-24 23:38:00,
2013-03-24 18:43:00,57.2,45.5,29.60,North,0,0.0,0.0,65,0.00,,,0.64,WUHU216HW,2013-03-24 23:43:00,
2013-03-24 18:48:00,56.9,44.8,29.60,North,0,0.0,0.0,64,0.00,,,0.64,WUHU216HW,2013-03-24 23:48:00,
2013-03-24 18:53:00,56.5,44.5,29.61,North,0,0.0,0.0,64,0.00,,,0.64,WUHU216HW,2013-03-24 23:53:00,
2013-03-24 18:58:00,56.2,44.9,29.61,North,0,0.0,0.0,66,0.00,,,0.64,WUHU216HW,2013-03-24 23:58:00,
2013-03-24 19:03:00,55.8,44.6,29.62,North,0,0.0,0.0,66,0.00,,,0.64,WUHU216HW,2013-03-25 00:03:00,
2013-03-24 19:08:00,55.6,44.8,29.62,North,0,0.0,0.0,67,0.00,,,0.64,WUHU216HW,2013-03-25 00:08:00,
2013-03-24 19:13:00,55.3,44.9,29.62,North,0,0.0,0.0,68,0.00,,,0.64,WUHU216HW,2013-03-25 00:13:00,
2013-03-24 19:18:00,54.9,44.6,29.62,North,0,0.0,0.0,68,0.00,,,0.64,WUHU216HW,2013-03-25 00:18:00,
2013-03-24 19:23:00,54.7,44.7,29.62,North,0,0.0,0.0,69,0.00,,,0.64,WUHU216HW,2013-03-25 00:23:00,
2013-03-24 19:28:00,54.5,45.0,29.62,North,0,0.0,0.0,70,0.00,,,0.64,WUHU216HW,2013-03-25 00:28:00,
2013-03-24 19:33:00,54.4,44.5,29.62,North,0,0.0,0.0,69,0.00,,,0.64,WUHU216HW,2013-03-25 00:33:00,
2013-03-24 19:38:00,54.4,44.5,29.63,North,0,0.0,0.0,69,0.00,,,0.64,WUHU216HW,2013-03-25 00:38:00,
2013-03-24 19:43:00,54.2,43.5,29.64,North,0,0.0,0.0,67,0.00,,,0.64,WUHU216HW,2013-03-25 00:43:00,
2013-03-24 19:48:00,54.2,42.2,29.64,North,0,0.0,0.0,64,0.00,,,0.64,WUHU216HW,2013-03-25 00:48:00,
2013-03-24 19:53:00,54.0,42.0,29.64,North,0,0.0,0.0,64,0.00,,,0.64,WUHU216HW,2013-03-25 00:53:00,
2013-03-24 19:58:00,54.0,41.7,29.64,North,0,0.0,0.0,63,0.00,,,0.64,WUHU216HW,2013-03-25 00:58:00,
2013-03-24 20:03:00,53.8,40.7,29.64,North,0,0.0,0.0,61,0.00,,,0.64,WUHU216HW,2013-03-25 01:03:00,
2013-03-24 20:08:00,53.6,41.0,29.65,North,0,0.0,0.0,62,0.00,,,0.64,WUHU216HW,2013-03-25 01:08:00,
2013-03-24 20:13:00,53.5,40.8,29.65,North,0,0.0,0.0,62,0.00,,,0.64,WUHU216HW,2013-03-25 01:13:00,
2013-03-24 20:18:00,53.3,40.6,29.66,North,0,0.0,0.0,62,0.00,,,0.64,WUHU216HW,2013-03-25 01:18:00,
2013-03-24 20:23:00,53.1,40.0,29.66,North,0,0.0,0.0,61,0.00,,,0.64,WUHU216HW,2013-03-25 01:23:00,
2013-03-24 20:28:00,52.9,40.2,29.67,North,0,0.0,0.0,62,0.00,,,0.64,WUHU216HW,2013-03-25 01:28:00,
2013-03-24 20:33:00,52.7,39.6,29.67,North,0,0.0,0.0,61,0.00,,,0.64,WUHU216HW,2013-03-25 01:33:00,
2013-03-24 20:38:00,52.6,39.1,29.68,North,0,0.0,0.0,60,0.00,,,0.64,WUHU216HW,2013-03-25 01:38:00,
2013-03-24 20:43:00,52.2,38.7,29.68,North,0,0.0,0.0,60,0.00,,,0.64,WUHU216HW,2013-03-25 01:43:00,
2013-03-24 20:48:00,51.8,38.8,29.69,North,0,0.0,0.0,61,0.00,,,0.64,WUHU216HW,2013-03-25 01:48:00,
2013-03-24 20:53:00,51.5,38.4,29.69,North,0,0.0,0.0,61,0.00,,,0.64,WUHU216HW,2013-03-25 01:53:00,
2013-03-24 20:58:00,51.1,38.5,29.70,North,0,0.0,0.0,62,0.00,,,0.64,WUHU216HW,2013-03-25 01:58:00,
2013-03-24 21:03:00,50.6,37.6,29.71,North,0,0.0,0.0,61,0.00,,,0.64,WUHU216HW,2013-03-25 02:03:00,
2013-03-24 21:08:00,50.0,37.5,29.71,North,0,0.0,0.0,62,0.00,,,0.64,WUHU216HW,2013-03-25 02:08:00,
2013-03-24 21:13:00,49.5,36.6,29.71,North,0,0.0,0.0,61,0.00,,,0.64,WUHU216HW,2013-03-25 02:13:00,
2013-03-24 21:18:00,49.1,36.3,29.72,North,0,0.0,0.0,61,0.00,,,0.64,WUHU216HW,2013-03-25 02:18:00,
2013-03-24 21:23:00,48.8,36.4,29.72,North,0,0.0,0.0,62,0.00,,,0.64,WUHU216HW,2013-03-25 02:23:00,
2013-03-24 21:28:00,48.4,35.6,29.72,North,0,0.0,0.0,61,0.00,,,0.64,WUHU216HW,2013-03-25 02:28:00,
2013-03-24 21:33:00,48.2,35.8,29.73,North,0,0.0,0.0,62,0.00,,,0.64,WUHU216HW,2013-03-25 02:33:00,
2013-03-24 21:38:00,48.1,35.3,29.73,North,0,0.0,0.0,61,0.00,,,0.64,WUHU216HW,2013-03-25 02:38:00,
2013-03-24 21:43:00,47.9,35.1,29.73,North,0,0.0,0.0,61,0.00,,,0.64,WUHU216HW,2013-03-25 02:43:00,
2013-03-24 21:48:00,47.9,35.1,29.73,North,0,0.0,0.0,61,0.00,,,0.64,WUHU216HW,2013-03-25 02:48:00,
2013-03-24 21:53:00,47.9,35.5,29.73,North,0,0.0,0.0,62,0.00,,,0.64,WUHU216HW,2013-03-25 02:53:00,
2013-03-24 21:58:00,47.7,35.4,29.74,North,0,0.0,0.0,62,0.00,,,0.64,WUHU216HW,2013-03-25 02:58:00,
2013-03-24 22:03:00,47.3,35.0,29.74,North,0,0.0,0.0,62,0.00,,,0.64,WUHU216HW,2013-03-25 03:03:00,
2013-03-24 22:08:00,47.2,34.8,29.74,North,0,0.0,0.0,62,0.00,,,0.64,WUHU216HW,2013-03-25 03:08:00,
2013-03-24 22:13:00,46.8,34.8,29.74,North,0,0.0,0.0,63,0.00,,,0.64,WUHU216HW,2013-03-25 03:13:00,
2013-03-24 22:18:00,46.4,34.5,29.74,North,0,0.0,0.0,63,0.00,,,0.64,WUHU216HW,2013-03-25 03:18:00,
2013-03-24 22:23:00,46.1,34.1,29.75,North,0,0.0,0.0,63,0.00,,,0.64,WUHU216HW,2013-03-25 03:23:00,
2013-03-24 22:28:00,45.9,34.0,29.75,North,0,0.0,0.0,63,0.00,,,0.64,WUHU216HW,2013-03-25 03:28:00,
2013-03-24 22:33:00,45.9,34.0,29.74,North,0,0.0,0.0,63,0.00,,,0.64,WUHU216HW,2013-03-25 03:33:00,
2013-03-24 22:38:00,45.7,33.9,29.75,North,0,0.0,0.0,63,0.00,,,0.64,WUHU216HW,2013-03-25 03:38:00,
2013-03-24 22:43:00,45.9,33.6,29.75,North,0,0.0,0.0,62,0.00,,,0.64,WUHU216HW,2013-03-25 03:43:00,
2013-03-24 22:48:00,45.9,33.2,29.75,North,0,0.0,0.0,61,0.00,,,0.64,WUHU216HW,2013-03-25 03:48:00,
2013-03-24 22:53:00,45.7,33.4,29.75,North,0,0.0,0.0,62,0.00,,,0.64,WUHU216HW,2013-03-25 03:53:00,
2013-03-24 22:58:00,45.4,31.4,29.76,North,0,0.0,0.0,58,0.00,,,0.64,WUHU216HW,2013-03-25 03:58:00,
2013-03-24 23:00:00,45.4,31.4,29.76,North,0,0.0,0.0,58,0.00,,,0.64,WUHU216HW,2013-03-25 04:00:00,
2013-03-24 23:05:00,45.0,31.6,29.76,North,0,0.0,0.0,59,0.00,,,0.64,WUHU216HW,2013-03-25 04:05:00,
2013-03-24 23:10:00,44.8,31.4,29.77,North,0,0.0,0.0,59,0.00,,,0.64,WUHU216HW,2013-03-25 04:10:00,
2013-03-24 23:15:00,44.6,31.7,29.77,North,0,0.0,0.0,60,0.00,,,0.64,WUHU216HW,2013-03-25 04:15:00,
2013-03-24 23:20:00,44.6,31.7,29.76,North,0,0.0,0.0,60,0.00,,,0.64,WUHU216HW,2013-03-25 04:20:00,
2013-03-24 23:25:00,44.5,31.9,29.76,North,0,0.0,0.0,61,0.00,,,0.64,WUHU216HW,2013-03-25 04:25:00,
2013-03-24 23:30:00,44.3,31.7,29.76,North,0,0.0,0.0,61,0.00,,,0.64,WUHU216HW,2013-03-25 04:30:00,
2013-03-24 23:35:00,44.3,31.7,29.76,North,0,0.0,0.0,61,0.00,,,0.64,WUHU216HW,2013-03-25 04:35:00,
2013-03-24 23:40:00,44.3,31.3,29.77,North,0,0.0,0.0,60,0.00,,,0.64,WUHU216HW,2013-03-25 04:40:00,
2013-03-24 23:45:00,44.3,31.3,29.77,North,0,0.0,0.0,60,0.00,,,0.64,WUHU216HW,2013-03-25 04:45:00,
2013-03-24 23:50:00,44.3,30.9,29.77,North,0,0.0,0.0,59,0.00,,,0.64,WUHU216HW,2013-03-25 04:50:00,
2013-03-24 23:55:00,44.3,30.4,29.77,North,0,0.0,0.0,58,0.00,,,0.64,WUHU216HW,2013-03-25 04:55:00,